AirNav   Bose ProFlight Aviation Headset
 
 281 users online  

24M Wilderness Airpark
Kent City, Michigan, USA

GOING TO KENT CITY?


FAA INFORMATION EFFECTIVE 08 NOVEMBER 2018

Location

FAA Identifier: 24M
Lat/Long: 43-14-41.0870N / 085-42-42.1520W
43-14.684783N / 085-42.702533W
43.2447464 / -85.7117089
(estimated)
Elevation: 785 ft. / 239 m (estimated)
Variation: 04W (1990)
From city: 3 miles NE of KENT CITY, MI
Time zone: UTC -5 (UTC -4 during Daylight Saving Time)
Zip code: 49330

Airport Operations

Airport use: Open to the public
Activation date: 11/1993
Control tower: no
ARTCC: CHICAGO CENTER
FSS: LANSING FLIGHT SERVICE STATION
NOTAMs facility: LAN (NOTAM-D service available)
Attendance: IREG
Wind indicator: yes
Segmented circle: no

Airport Communications

CTAF: 122.9
WX AWOS-3 at FFX (17 nm NW): 118.775 (231-928-0715)

Nearby radio navigation aids

VOR radial/distance  VOR name  Freq  Var
MKGr073/15.0MUSKEGON VORTAC115.2001W
HICr180/19.8WHITE CLOUD VOR/DME117.6001W
VIOr345/29.1VICTORY VOR/DME115.9504W

Airport Services

Runway Information

Runway 9/27

Dimensions: 2543 x 100 ft. / 775 x 30 m
Surface: turf, in good condition
Runway edge markings: RWY 09/27 & DSPLD THLSDS MKD WITH 3 FT YELLOW CONES.
RUNWAY 9  RUNWAY 27
Traffic pattern: leftleft
Displaced threshold: 537 ft.335 ft.
Obstructions: 40 ft. trees, 60 ft. left of centerline
APCH RATIO 10:1 AT DSPLCD THLD BASED ON 60 FT TREES 609 FT DSTC123 FT L, 20:1 BASED ON STRAIGHT OUT.
15 ft. road, 10 ft. from runway
APCH RATIO 15:1 AT DSPLCD THLD BASED ON 41 FT TREES 625 FT DSTC 50 FT R/L.

Airport Ownership and Management from official FAA records

Ownership: Privately-owned
Owner: WILDERNESS AIRPARK ASSOCIATION
C/O RONALD FRITZ, 15401 SPARTA AVE
KENT CITY, MI 49330-9763
Phone 616-678-5012
Manager: RONALD FRITZ
15401 SPARTA AVE., 15387 SPARTA AVE.
KENT CITY, MI 49330-9763
Phone 616-678-5012
AMGR LIVES ON ARPT.

Airport Operational Statistics

Aircraft based on the field: 5
Single engine airplanes: 5
    
Aircraft operations: avg 67/month *
50% transient general aviation
50% local general aviation
* for 12-month period ending 31 December 2015

Additional Remarks

ARPT CLOSED NOV-APR WHEN SNOW COVERED EXCEPT FOR SKI EQUIPPED ACFT. NO SNOW REMOVAL.
NO SNOW REMOVAL. ARPT CLOSED NOV-APRIL & WHEN SNOW COVERED EXCEPT FOR SKI EQUIPPED ACFT.

Instrument Procedures

There are no published instrument procedures at 24M.

Some nearby airports with instrument procedures:

8D4 - Paul C Miller-Sparta Airport (7 nm S)
KFFX - Fremont Municipal Airport (17 nm NW)
6D6 - Greenville Municipal Airport (21 nm E)
13C - Lakeview Airport-Griffith Field (23 nm NE)
KGRR - Gerald R Ford International Airport (23 nm S)
 
Loc | Ops | Rwys | IFR | FBO | Links
Com | Nav | Svcs | Stats | Notes


 
Area around 24M (Wilderness Airpark)
 
Road maps at: MapQuest Bing Google
 
Aerial photo
WARNING: Photo may not be current or correct
Aerial photo of 24M (Wilderness Airpark)
Photo by Kevin Jarchow, 1st LT CAP
Grand Rapids Senior Squadron (MI-190)
Michigan Wing
U.S. Air Force Auxiliary
Photo taken 29-Dec-2009

Do you have a better or more recent aerial photo of Wilderness Airpark that you would like to share? If so, please send us your photo.

 
Sectional chart

 
Airport distance calculator
Flying to Wilderness Airpark? Find the distance to fly.

From to 24M

Sunrise and sunset
Times for 17-Nov-2018
 Local
(UTC-5)
 Zulu
(UTC)
Morning civil twilight07:0912:09
Sunrise07:3912:39
Sunset17:1622:16
Evening civil twilight17:4722:47

Current date and time
Zulu (UTC)  17-Nov-2018 09:14:32
Local (UTC-5)  17-Nov-2018 04:14:32
 
METAR
KFFX 
17nm NW 
170857Z AUTO 00000KT 10SM BKN035 BKN047 BKN055 01/M03 A3014 RMK AO2 T00051026
KMKG 
23nm W 
170855Z AUTO 28004KT 10SM FEW027 BKN033 OVC075 02/M03 A3016 RMK AO2 SNE06 SLP219 P0000 60000 T00221028 51014
KGRR 
23nm S 
170853Z AUTO 29007KT 10SM OVC031 02/M02 A3015 RMK AO2 SLP217 T00171022 51016
KRQB 
30nm N 
170855Z AUTO 00000KT 10SM OVC031 00/M04 A3012 RMK AO2 T00041039
KY70 
34nm SE 
170855Z AUTO 26005KT 10SM OVC033 01/M03 A3014 RMK AO2 T00111031
TAF
KMKG 
23nm W 
170537Z 1706/1806 31008KT P6SM OVC027 FM170900 31006KT P6SM -SN OVC025 FM171200 35004KT 3SM -SHSN BR OVC025 FM171400 VRB04KT 2SM -SHSN BR OVC020 FM171700 36008KT P6SM OVC030 FM172000 01006KT P6SM BKN045
KGRR 
23nm S 
170537Z 1706/1806 29011KT P6SM OVC025 FM171200 27004KT P6SM VCSH OVC025 FM171400 35004KT 4SM -SHSN BR OVC020 FM171900 36006KT P6SM OVC035
NOTAMs
Click for the latest NOTAMs
NOTAMs are issued by the DoD/FAA and will open in a separate window not controlled by AirNav.

 

 
 

Would you like to see your business listed on this page?

 If your business provides an interesting product or service to pilots, flight crews, aircraft, or users of the Wilderness Airpark, you should consider listing it here.  To start the listing process, click on the button below
 
Add a business
 

Other Pages about Wilderness Airpark

Page from the Michigan Airport Directory (PDF)
 
Update a link
 
Copyright © AirNav, LLC. All rights reserved. Privacy Policy  Contact